Walnut Ridge, AR

2:53 PM CDT on July 21, 2017 (GMT -0500)
Walnut Ridge Regional

Weather History for KARG - December, 2011

Change the Weather History Date:

Wednesday, December 14, 2011

  Actual Average Record
Temperature  
Mean Temperature 54 °F -  
Max Temperature 60 °F 45 °F 62 °F (2006)
Min Temperature 48 °F 31 °F 21 °F (2004)
Degree Days  
Heating Degree Days 11    
Growing Degree Days 4 (Base 50)    
Moisture  
Dew Point 52 °F    
Average Humidity 94    
Maximum Humidity 100    
Minimum Humidity 88    
Precipitation  
Precipitation 0.01 in - - ()
Sea Level Pressure  
Sea Level Pressure 30.12 in    
Wind  
Wind Speed 14 mph (South)    
Max Wind Speed 25 mph    
Max Gust Speed 32 mph    
Visibility 7 miles    
Events      
Averages and records for this station are not official NWS values.
T = Trace of Precipitation, MM = Missing Value Source: NWS Daily Summary

Daily Weather History Graph

Daily Weather History Graph

Search for Another Location

Airport or City:

Trip Planner

Search our weather history database for the weather conditions in past years. The results will help you decide how hot, cold, wet, or windy it might be!

Date:

Astronomy

Dec. 14, 2011 Rise Set
Actual Time 7:06 AM CST 4:50 PM CST
Civil Twilight 6:37 AM CST 5:18 PM CST
Nautical Twilight 6:05 AM CST 5:50 PM CST
Astronomical Twilight 5:34 AM CST 6:22 PM CST
Moon 9:04 PM CST (12/14) 9:56 AM CST (12/14)
Length of Visible Light 10h 40m
Length of Day
9h 43m
Waning Gibbous, 83% of the Moon is Illuminated
Dec 14
Waning Gibbous
Dec 17
Last Quarter
Dec 24
New
Jan 1
First Quarter
Jan 9
Full

Hourly Weather History & Observations

Time (CST) Temp. Dew Point Humidity Pressure Visibility Wind Dir Wind Speed Gust Speed Precip Events Conditions
12:15 AM 48.2 °F 46.4 °F 93% 30.27 in 2.0 mi South 8.1 mph - N/A   Overcast
12:35 AM 48.2 °F 46.4 °F 93% 30.26 in 1.5 mi South 8.1 mph - N/A   Overcast
12:55 AM 48.2 °F 46.4 °F 93% 30.26 in 1.2 mi South 9.2 mph - N/A   Overcast
1:15 AM 48.2 °F 46.4 °F 93% 30.24 in 1.2 mi South 8.1 mph - N/A   Overcast
1:35 AM 48.2 °F 46.4 °F 93% 30.24 in 1.2 mi South 9.2 mph - N/A   Overcast
1:55 AM 48.2 °F 48.2 °F 100% 30.24 in 1.8 mi South 10.4 mph - N/A   Overcast
2:15 AM 48.2 °F 48.2 °F 100% 30.24 in 3.0 mi South 11.5 mph - N/A   Overcast
2:35 AM 50.0 °F 48.2 °F 94% 30.23 in 3.0 mi South 13.8 mph - N/A   Overcast
2:55 AM 50.0 °F 48.2 °F 94% 30.23 in 2.0 mi South 12.7 mph - N/A   Overcast
3:15 AM 50.0 °F 48.2 °F 94% 30.22 in 2.0 mi South 12.7 mph - 0.01 in   Overcast
3:35 AM 50.0 °F 48.2 °F 94% 30.21 in 3.0 mi South 16.1 mph - 0.01 in   Overcast
3:55 AM 50.0 °F 50.0 °F 100% 30.21 in 3.0 mi South 15.0 mph - 0.01 in   Overcast
4:15 AM 50.0 °F 50.0 °F 100% 30.22 in 3.0 mi South 12.7 mph - N/A   Overcast
4:35 AM 50.0 °F 48.2 °F 94% 30.22 in 4.0 mi South 12.7 mph - N/A   Overcast
4:55 AM 50.0 °F 48.2 °F 94% 30.22 in 7.0 mi South 13.8 mph - N/A   Overcast
5:15 AM 50.0 °F 48.2 °F 94% 30.22 in 10.0 mi South 11.5 mph - N/A   Overcast
5:35 AM 50.0 °F 48.2 °F 94% 30.22 in 6.0 mi South 11.5 mph - N/A   Overcast
6:15 AM 50.0 °F 48.2 °F 94% 30.21 in 5.0 mi South 9.2 mph - N/A   Overcast
6:35 AM 50.0 °F 50.0 °F 100% 30.21 in 3.0 mi South 9.2 mph - N/A   Overcast
6:55 AM 50.0 °F 50.0 °F 100% 30.20 in 2.0 mi South 10.4 mph - N/A   Overcast
7:15 AM 50.0 °F 50.0 °F 100% 30.19 in 1.8 mi South 10.4 mph - N/A   Overcast
7:35 AM 50.0 °F 50.0 °F 100% 30.19 in 1.2 mi South 10.4 mph - N/A   Overcast
7:55 AM 50.0 °F 50.0 °F 100% 30.19 in 3.0 mi South 12.7 mph - N/A   Overcast
8:15 AM 51.8 °F 50.0 °F 94% 30.20 in 3.0 mi South 15.0 mph - N/A   Overcast
8:35 AM 51.8 °F 50.0 °F 94% 30.19 in 3.0 mi South 13.8 mph - N/A   Overcast
9:15 AM 51.8 °F 50.0 °F 94% 30.20 in 10.0 mi South 17.3 mph 23.0 mph N/A   Overcast
9:35 AM 53.6 °F 51.8 °F 94% 30.19 in 10.0 mi South 19.6 mph - N/A   Overcast
9:55 AM 53.6 °F 53.6 °F 100% 30.18 in 10.0 mi South 17.3 mph - N/A   Overcast
10:15 AM 53.6 °F 53.6 °F 100% 30.17 in 10.0 mi South 17.3 mph 26.5 mph N/A   Overcast
10:35 AM 53.6 °F 53.6 °F 100% 30.17 in 10.0 mi South 19.6 mph - N/A   Overcast
10:55 AM 55.4 °F 53.6 °F 94% 30.16 in 10.0 mi South 15.0 mph 21.9 mph N/A   Overcast
11:15 AM 55.4 °F 53.6 °F 94% 30.13 in 10.0 mi South 21.9 mph 26.5 mph N/A   Overcast
11:35 AM 55.4 °F 53.6 °F 94% 30.12 in 10.0 mi South 20.7 mph 27.6 mph N/A   Overcast
11:55 AM 57.2 °F 53.6 °F 88% 30.11 in 10.0 mi South 20.7 mph 25.3 mph N/A   Overcast
12:15 PM 57.2 °F 55.4 °F 94% 30.07 in 10.0 mi SSE 20.7 mph 26.5 mph N/A   Overcast
12:35 PM 59.0 °F 55.4 °F 88% 30.07 in 10.0 mi South 21.9 mph 25.3 mph N/A   Mostly Cloudy
1:15 PM 59.0 °F 55.4 °F 88% 30.06 in 10.0 mi South 21.9 mph 26.5 mph N/A   Partly Cloudy
1:35 PM 59.0 °F 55.4 °F 88% 30.06 in 10.0 mi SSW 20.7 mph 25.3 mph N/A   Scattered Clouds
1:55 PM 59.0 °F 55.4 °F 88% 30.05 in 10.0 mi South 23.0 mph 26.5 mph N/A   Mostly Cloudy
2:15 PM 59.0 °F 55.4 °F 88% 30.05 in 10.0 mi South 20.7 mph - N/A   Overcast
2:35 PM 57.2 °F 55.4 °F 94% 30.04 in 10.0 mi South 19.6 mph - N/A   Overcast
2:55 PM 57.2 °F 55.4 °F 94% 30.04 in 10.0 mi South 18.4 mph - N/A   Overcast
3:15 PM 57.2 °F 55.4 °F 94% 30.04 in 10.0 mi South 18.4 mph 24.2 mph N/A   Overcast
3:35 PM 57.2 °F 55.4 °F 94% 30.03 in 10.0 mi South 17.3 mph 21.9 mph N/A   Overcast
3:56 PM 57.2 °F 55.4 °F 94% 30.04 in 10.0 mi South 17.3 mph 23.0 mph N/A   Overcast
4:15 PM 57.2 °F 55.4 °F 94% 30.03 in 8.0 mi South 18.4 mph 24.2 mph N/A   Overcast
4:35 PM 57.2 °F 55.4 °F 94% 30.02 in 7.0 mi South 20.7 mph - N/A   Overcast
4:55 PM 57.2 °F 55.4 °F 94% 30.01 in 7.0 mi South 18.4 mph - N/A   Overcast
5:15 PM 57.2 °F 55.4 °F 94% 30.01 in 9.0 mi South 19.6 mph 25.3 mph N/A   Overcast
5:35 PM 57.2 °F 55.4 °F 94% 30.00 in 10.0 mi South 18.4 mph - N/A   Overcast
5:55 PM 57.2 °F 55.4 °F 94% 30.00 in 10.0 mi South 15.0 mph - N/A   Overcast
6:15 PM 57.2 °F 55.4 °F 94% 30.00 in 10.0 mi South 15.0 mph - N/A   Overcast
6:35 PM 59.0 °F 55.4 °F 88% 30.00 in 10.0 mi South 13.8 mph - N/A   Overcast
6:55 PM 59.0 °F 57.2 °F 94% 29.99 in 10.0 mi South 13.8 mph - N/A   Overcast
7:15 PM 59.0 °F 57.2 °F 94% 29.98 in 10.0 mi South 17.3 mph - N/A   Overcast
7:35 PM 59.0 °F 57.2 °F 94% 29.96 in 10.0 mi South 17.3 mph - N/A   Overcast
7:55 PM 60.8 °F 57.2 °F 88% 29.96 in 10.0 mi South 20.7 mph 24.2 mph N/A   Overcast
8:15 PM 60.8 °F 57.2 °F 88% 29.97 in 10.0 mi South 18.4 mph - N/A   Overcast
8:35 PM 60.8 °F 57.2 °F 88% 29.95 in 10.0 mi South 24.2 mph 31.1 mph N/A   Overcast
8:55 PM 60.8 °F 57.2 °F 88% 29.95 in 10.0 mi South 25.3 mph 32.2 mph N/A   Overcast
9:15 PM 62.6 °F 57.2 °F 82% 29.94 in 10.0 mi South 21.9 mph - N/A   Overcast
9:35 PM 62.6 °F 57.2 °F 82% 29.95 in 10.0 mi South 20.7 mph 26.5 mph N/A   Overcast
9:55 PM 60.8 °F 57.2 °F 88% 29.95 in 8.0 mi South 23.0 mph 29.9 mph 0.04 in   Overcast
10:15 PM 60.8 °F 57.2 °F 88% 29.95 in 10.0 mi South 20.7 mph 28.8 mph N/A   Overcast
10:35 PM 60.8 °F 59.0 °F 94% 29.94 in 10.0 mi South 20.7 mph 24.2 mph N/A   Overcast
10:55 PM 60.8 °F 59.0 °F 94% 29.93 in 10.0 mi South 19.6 mph 27.6 mph N/A   Overcast
11:15 PM 60.8 °F 59.0 °F 94% 29.95 in 9.0 mi SSW 19.6 mph 27.6 mph 0.01 in Thunderstorm Thunderstorm
11:35 PM 60.8 °F 59.0 °F 94% 29.97 in 6.0 mi SSW 16.1 mph - 0.29 in Thunderstorm Thunderstorm
11:55 PM 60.8 °F 59.0 °F 94% 29.94 in 10.0 mi South 13.8 mph - 0.38 in   Mostly Cloudy